,,Stat6,,Stat2,,Stat8,,Stat9,,Stat10,,Wind1,,Wind1,
time,status,PA1M_AVG,status,PR1M_SUM,status,RH1M_AVG,status,SR1M_AVG,status,TA1M_AVG,status,W1dAve1m,status,W1sAve1m,
2005-10-24, 00:00:00,VALID,918.591,VALID,0,VALID,97.8983,VALID,0.101885,VALID,18.8087,VALID,56,VALID,0.856836,
2005-10-24, 00:01:00,VALID,918.592,VALID,0,VALID,97.8411,VALID,0.0679233,VALID,18.7831,VALID,54,VALID,0.929129,
2005-10-24, 00:02:00,VALID,918.576,VALID,0,VALID,97.6732,VALID,0.101885,VALID,18.7501,VALID,56,VALID,0.729353,
2005-10-24, 00:03:00,VALID,918.582,VALID,0,VALID,97.6821,VALID,0.0169808,VALID,18.7317,VALID,56,VALID,0.725818,
2005-10-24, 00:04:00,VALID,918.571,VALID,0,VALID,97.7546,VALID,0,VALID,18.7186,VALID,86,VALID,0.635016,
2005-10-24, 00:05:00,VALID,918.567,VALID,0,VALID,97.822,VALID,0,VALID,18.7056,VALID,100,VALID,0.351389,
2005-10-24, 00:06:00,VALID,918.569,VALID,0,VALID,97.9695,VALID,-0.0169808,VALID,18.7093,VALID,103,VALID,0.339177,
2005-10-24, 00:07:00,VALID,918.576,VALID,0,VALID,98.0344,VALID,0,VALID,18.7193,VALID,108,VALID,0.336509,
2005-10-24, 00:08:00,VALID,918.567,VALID,0,VALID,98.0661,VALID,0,VALID,18.7257,VALID,108,VALID,0.339134,
2005-10-24, 00:09:00,VALID,918.556,VALID,0,VALID,98.0827,VALID,-0.0339617,VALID,18.729,VALID,108,VALID,0.492989,
2005-10-24, 00:10:00,VALID,918.557,VALID,0,VALID,98.1068,VALID,0,VALID,18.7255,VALID,109,VALID,0.44478,
2005-10-24, 00:11:00,VALID,918.548,VALID,0,VALID,98.1234,VALID,0,VALID,18.7419,VALID,116,VALID,0.499814,
2005-10-24, 00:12:00,VALID,918.532,VALID,0,VALID,98.1882,VALID,0,VALID,18.7382,VALID,129,VALID,0.463542,
2005-10-24, 00:13:00,VALID,918.528,VALID,0,VALID,98.2582,VALID,-0.0169808,VALID,18.7419,VALID,129,VALID,0.414232,
2005-10-24, 00:14:00,VALID,918.517,VALID,0,VALID,98.3612,VALID,-0.0169808,VALID,18.7488,VALID,129,VALID,0.261719,
2005-10-24, 00:15:00,VALID,918.499,VALID,0,VALID,98.2048,VALID,0,VALID,18.7382,VALID,126,VALID,0.430618,
2005-10-24, 00:16:00,VALID,918.486,VALID,0,VALID,98.1908,VALID,0,VALID,18.7451,VALID,122,VALID,0.256696,
2005-10-24, 00:17:00,VALID,918.47,VALID,0,VALID,98.2709,VALID,-0.0169808,VALID,18.7486,VALID,122,VALID,0.00429688,
2005-10-24, 00:18:00,VALID,918.461,VALID,0,VALID,98.5087,VALID,0,VALID,18.7578,VALID,122,VALID,0.0271662,
2005-10-24, 00:19:00,VALID,918.463,VALID,0,VALID,98.4692,VALID,-0.0169808,VALID,18.7612,VALID,122,VALID,0.259629,
2005-10-24, 00:20:00,VALID,918.447,VALID,0,VALID,98.4731,VALID,0,VALID,18.7578,VALID,122,VALID,0.253348,
2005-10-24, 00:21:00,VALID,918.449,VALID,0,VALID,98.3764,VALID,-0.0339617,VALID,18.7645,VALID,122,VALID,0.344638,
2005-10-24, 00:22:00,VALID,918.437,VALID,0,VALID,98.2899,VALID,0,VALID,18.7516,VALID,122,VALID,0.195676,
2005-10-24, 00:23:00,VALID,918.433,VALID,0,VALID,98.5557,VALID,-0.0169808,VALID,18.7612,VALID,122,VALID,0.015253,
2005-10-24, 00:24:00,VALID,918.423,VALID,0,VALID,98.5379,VALID,0,VALID,18.7906,VALID,122,VALID,0.256098,
2005-10-24, 00:25:00,VALID,918.416,VALID,0,VALID,98.688,VALID,-0.0169808,VALID,18.8067,VALID,115,VALID,0.272321,
2005-10-24, 00:26:00,VALID,918.417,VALID,0,VALID,98.8202,VALID,0,VALID,18.8325,VALID,80,VALID,0.399346,
2005-10-24, 00:27:00,VALID,918.404,VALID,0,VALID,98.7477,VALID,0,VALID,18.8288,VALID,80,VALID,0.37965,
2005-10-24, 00:28:00,VALID,918.397,VALID,0,VALID,98.8825,VALID,-0.0169808,VALID,18.845,VALID,80,VALID,0.296689,
2005-10-24, 00:29:00,VALID,918.406,VALID,0,VALID,98.5659,VALID,-0.0169808,VALID,18.8388,VALID,80,VALID,0.36684,
2005-10-24, 00:30:00,VALID,918.395,VALID,0,VALID,98.2887,VALID,-0.0169808,VALID,18.8258,VALID,80,VALID,0.395089,
2005-10-24, 00:31:00,VALID,918.398,VALID,0,VALID,98.262,VALID,0,VALID,18.8097,VALID,80,VALID,0.444767,
2005-10-24, 00:32:00,VALID,918.396,VALID,0,VALID,98.5633,VALID,0,VALID,18.8353,VALID,75,VALID,0.611607,
2005-10-24, 00:33:00,VALID,918.385,VALID,0,VALID,98.7782,VALID,0.0509425,VALID,18.8378,VALID,56,VALID,0.569957,
2005-10-24, 00:34:00,VALID,918.396,VALID,0,VALID,98.7706,VALID,0.101885,VALID,18.8242,VALID,51,VALID,0.63681,
2005-10-24, 00:35:00,VALID,918.387,VALID,0,VALID,98.7579,VALID,0.0849042,VALID,18.8212,VALID,48,VALID,0.596168,
2005-10-24, 00:36:00,VALID,918.372,VALID,0,VALID,98.5646,VALID,0.101885,VALID,18.8175,VALID,48,VALID,0.652951,
2005-10-24, 00:37:00,VALID,918.358,VALID,0,VALID,98.2645,VALID,0.0849042,VALID,18.7986,VALID,49,VALID,0.800223,
2005-10-24, 00:38:00,VALID,918.356,VALID,0,VALID,97.9886,VALID,0.0849042,VALID,18.7824,VALID,54,VALID,0.853981,
2005-10-24, 00:39:00,VALID,918.358,VALID,0,VALID,97.9657,VALID,0.0679233,VALID,18.8055,VALID,54,VALID,0.658918,
2005-10-24, 00:40:00,VALID,918.356,VALID,0,VALID,97.6325,VALID,0.0679233,VALID,18.7924,VALID,60,VALID,0.9641,
2005-10-24, 00:41:00,VALID,918.363,VALID,0,VALID,97.4024,VALID,0.0509425,VALID,18.7891,VALID,71,VALID,1.004,
2005-10-24, 00:42:00,VALID,918.348,VALID,0,VALID,97.1976,VALID,0.0679233,VALID,18.8021,VALID,72,VALID,0.973899,
2005-10-24, 00:43:00,VALID,918.334,VALID,0,VALID,96.9815,VALID,0.0509425,VALID,18.812,VALID,77,VALID,0.963034,
2005-10-24, 00:44:00,VALID,918.328,VALID,0,VALID,96.6674,VALID,0.0679233,VALID,18.8214,VALID,84,VALID,0.893999,
2005-10-24, 00:45:00,VALID,918.323,VALID,0,VALID,96.6394,VALID,0.0849042,VALID,18.8408,VALID,85,VALID,0.684674,
2005-10-24, 00:46:00,VALID,918.312,VALID,0,VALID,96.7373,VALID,0.0509425,VALID,18.8602,VALID,81,VALID,0.814135,
2005-10-24, 00:47:00,VALID,918.304,VALID,0,VALID,96.6826,VALID,0.0509425,VALID,18.883,VALID,87,VALID,0.728981,
2005-10-24, 00:48:00,VALID,918.296,VALID,0,VALID,96.6038,VALID,-0.0849042,VALID,18.8812,VALID,113,VALID,1.01563,
2005-10-24, 00:49:00,VALID,918.275,VALID,0,VALID,96.6203,VALID,-0.101885,VALID,18.8884,VALID,120,VALID,1.09684,
2005-10-24, 00:50:00,VALID,918.263,VALID,0,VALID,96.7551,VALID,-0.0849042,VALID,18.9013,VALID,128,VALID,0.813542,
2005-10-24, 00:51:00,VALID,918.253,VALID,0,VALID,96.839,VALID,-0.101885,VALID,18.9073,VALID,137,VALID,1.01848,
2005-10-24, 00:52:00,VALID,918.243,VALID,0,VALID,96.9446,VALID,-0.135847,VALID,18.911,VALID,145,VALID,1.24758,
2005-10-24, 00:53:00,VALID,918.226,VALID,0,VALID,97.1086,VALID,-0.101885,VALID,18.9043,VALID,144,VALID,1.19141,
2005-10-24, 00:54:00,VALID,918.211,VALID,0,VALID,97.2434,VALID,-0.101885,VALID,18.8815,VALID,135,VALID,1.10528,
2005-10-24, 00:55:00,VALID,918.202,VALID,0,VALID,97.2816,VALID,-0.118866,VALID,18.8722,VALID,130,VALID,1.02039,
2005-10-24, 00:56:00,VALID,918.192,VALID,0,VALID,97.588,VALID,-0.0849042,VALID,18.8591,VALID,134,VALID,1.37941,
2005-10-24, 00:57:00,VALID,918.189,VALID,0,VALID,98.1361,VALID,-0.101885,VALID,18.8429,VALID,139,VALID,0.886242,
2005-10-24, 00:58:00,VALID,918.188,VALID,0,VALID,98.5926,VALID,-0.101885,VALID,18.8136,VALID,138,VALID,1.06177,
2005-10-24, 00:59:00,VALID,918.191,VALID,0,VALID,98.9258,VALID,-0.0849042,VALID,18.7781,VALID,138,VALID,1.04549,
2005-10-24, 01:00:00,VALID,918.185,VALID,0,VALID,99.3212,VALID,-0.101885,VALID,18.7428,VALID,133,VALID,1.05621,
2005-10-24, 01:01:00,VALID,918.186,VALID,0,VALID,99.6417,VALID,-0.0849042,VALID,18.7038,VALID,129,VALID,1.21912,
2005-10-24, 01:02:00,VALID,918.17,VALID,0,VALID,99.9146,VALID,-0.0849042,VALID,18.6817,VALID,134,VALID,1.03027,
2005-10-24, 01:03:00,VALID,918.158,VALID,0,VALID,100,VALID,0.0339617,VALID,18.6348,VALID,133,VALID,0.896289,
2005-10-24, 01:04:00,VALID,918.148,VALID,0,VALID,100,VALID,0,VALID,18.6053,VALID,136,VALID,0.917225,
2005-10-24, 01:05:00,VALID,918.131,VALID,0,VALID,100,VALID,0,VALID,18.5896,VALID,134,VALID,0.882617,
2005-10-24, 01:06:00,VALID,918.113,VALID,0,VALID,100,VALID,0.0169808,VALID,18.5995,VALID,128,VALID,0.717035,
2005-10-24, 01:07:00,VALID,918.088,VALID,0,VALID,100,VALID,0.0339617,VALID,18.5956,VALID,128,VALID,0.718403,
2005-10-24, 01:08:00,VALID,918.075,VALID,0,VALID,100,VALID,0.0679233,VALID,18.6053,VALID,116,VALID,0.481213,
2005-10-24, 01:09:00,VALID,918.061,VALID,0,VALID,100,VALID,0.0169808,VALID,18.6118,VALID,98,VALID,0.502976,
2005-10-24, 01:10:00,VALID,918.059,VALID,0,VALID,99.9479,VALID,0,VALID,18.6314,VALID,100,VALID,0.703125,
2005-10-24, 01:11:00,VALID,918.035,VALID,0,VALID,99.9074,VALID,0.0339617,VALID,18.6706,VALID,77,VALID,0.467152,
2005-10-24, 01:12:00,VALID,918.033,VALID,0,VALID,99.8998,VALID,0.0169808,VALID,18.7029,VALID,71,VALID,0.574609,
2005-10-24, 01:13:00,VALID,918.022,VALID,0,VALID,99.9735,VALID,0.0339617,VALID,18.7444,VALID,68,VALID,0.435547,
2005-10-24, 01:14:00,VALID,918.015,VALID,0,VALID,99.9964,VALID,0.0169808,VALID,18.7668,VALID,68,VALID,0.376302,
2005-10-24, 01:15:00,VALID,917.999,VALID,0,VALID,100,VALID,0.0509425,VALID,18.7993,VALID,68,VALID,0.116616,
2005-10-24, 01:16:00,VALID,917.994,VALID,0,VALID,99.9929,VALID,0.0169808,VALID,18.8025,VALID,68,VALID,0,
2005-10-24, 01:17:00,VALID,917.981,VALID,0,VALID,99.9964,VALID,0.0169808,VALID,18.8122,VALID,68,VALID,0.0804869,
2005-10-24, 01:18:00,VALID,917.965,VALID,0,VALID,99.969,VALID,0,VALID,18.8316,VALID,68,VALID,0.237351,
2005-10-24, 01:19:00,VALID,917.95,VALID,0,VALID,99.8731,VALID,0,VALID,18.8381,VALID,68,VALID,0.326014,
2005-10-24, 01:20:00,VALID,917.939,VALID,0,VALID,99.7828,VALID,0.0339617,VALID,18.8641,VALID,67,VALID,0.560082,
2005-10-24, 01:21:00,VALID,917.924,VALID,0,VALID,99.5616,VALID,0,VALID,18.883,VALID,63,VALID,0.952237,
2005-10-24, 01:22:00,VALID,917.916,VALID,0,VALID,99.2386,VALID,0,VALID,18.8733,VALID,63,VALID,1.04173,
2005-10-24, 01:23:00,VALID,917.895,VALID,0,VALID,98.9537,VALID,0.0509425,VALID,18.877,VALID,63,VALID,1.13951,
2005-10-24, 01:24:00,VALID,917.884,VALID,0,VALID,98.8215,VALID,0,VALID,18.8641,VALID,63,VALID,1.1808,
2005-10-24, 01:25:00,VALID,917.874,VALID,0,VALID,98.791,VALID,0,VALID,18.8549,VALID,63,VALID,1.04272,
2005-10-24, 01:26:00,VALID,917.849,VALID,0,VALID,98.9245,VALID,0,VALID,18.8316,VALID,58,VALID,0.77846,
2005-10-24, 01:27:00,VALID,917.833,VALID,0,VALID,99.0402,VALID,0,VALID,18.8383,VALID,56,VALID,0.750363,
2005-10-24, 01:28:00,VALID,917.808,VALID,0,VALID,98.9436,VALID,0.0339617,VALID,18.8187,VALID,61,VALID,0.843941,
2005-10-24, 01:29:00,VALID,917.794,VALID,0,VALID,98.9842,VALID,0.0169808,VALID,18.7993,VALID,72,VALID,0.682958,
2005-10-24, 01:30:00,VALID,917.761,VALID,0,VALID,98.8202,VALID,0.0169808,VALID,18.7896,VALID,93,VALID,0.962936,
2005-10-24, 01:31:00,VALID,917.757,VALID,0,VALID,98.8075,VALID,0.0339617,VALID,18.7836,VALID,73,VALID,0.721475,
2005-10-24, 01:32:00,VALID,917.729,VALID,0,VALID,98.791,VALID,0,VALID,18.7635,VALID,83,VALID,0.853379,
2005-10-24, 01:33:00,VALID,917.724,VALID,0,VALID,98.6841,VALID,-0.0849042,VALID,18.7553,VALID,74,VALID,0.849657,
2005-10-24, 01:34:00,VALID,917.706,VALID,0,VALID,98.7833,VALID,-0.0849042,VALID,18.7786,VALID,49,VALID,0.884527,
2005-10-24, 01:35:00,VALID,917.698,VALID,0,VALID,98.8291,VALID,-0.0849042,VALID,18.7684,VALID,77,VALID,0.613839,
2005-10-24, 01:36:00,VALID,917.691,VALID,0,VALID,98.6791,VALID,-0.101885,VALID,18.7557,VALID,74,VALID,0.575817,
2005-10-24, 01:37:00,VALID,917.686,VALID,0,VALID,98.646,VALID,-0.0849042,VALID,18.7419,VALID,59,VALID,0.357376,
2005-10-24, 01:38:00,VALID,917.668,VALID,0,VALID,98.5977,VALID,-0.101885,VALID,18.7426,VALID,126,VALID,0.817454,
2005-10-24, 01:39:00,VALID,917.665,VALID,0,VALID,98.6078,VALID,-0.0849042,VALID,18.7495,VALID,120,VALID,0.788707,
2005-10-24, 01:40:00,VALID,917.646,VALID,0,VALID,98.7108,VALID,-0.0849042,VALID,18.752,VALID,104,VALID,0.660511,
2005-10-24, 01:41:00,VALID,917.645,VALID,0,VALID,98.7375,VALID,-0.101885,VALID,18.7557,VALID,114,VALID,0.749822,
2005-10-24, 01:42:00,VALID,917.629,VALID,0,VALID,98.6536,VALID,-0.0849042,VALID,18.7456,VALID,132,VALID,0.721946,
2005-10-24, 01:43:00,VALID,917.624,VALID,0,VALID,98.7999,VALID,-0.101885,VALID,18.7622,VALID,131,VALID,0.489281,
2005-10-24, 01:44:00,VALID,917.609,VALID,0,VALID,98.8825,VALID,-0.0849042,VALID,18.762,VALID,114,VALID,0.441584,
2005-10-24, 01:45:00,VALID,917.619,VALID,0,VALID,98.9677,VALID,-0.0849042,VALID,18.759,VALID,98,VALID,0.315104,
2005-10-24, 01:46:00,VALID,917.612,VALID,0,VALID,99.0593,VALID,-0.101885,VALID,18.7654,VALID,98,VALID,0.234201,
2005-10-24, 01:47:00,VALID,917.598,VALID,0,VALID,98.8227,VALID,-0.118866,VALID,18.7687,VALID,106,VALID,0.745028,
2005-10-24, 01:48:00,VALID,917.599,VALID,0,VALID,98.7045,VALID,-0.0339617,VALID,18.7546,VALID,107,VALID,0.594727,
2005-10-24, 01:49:00,VALID,917.59,VALID,0,VALID,98.7821,VALID,0.0169808,VALID,18.7707,VALID,110,VALID,0.543403,
2005-10-24, 01:50:00,VALID,917.577,VALID,0,VALID,98.8151,VALID,0,VALID,18.7543,VALID,105,VALID,0.863863,
2005-10-24, 01:51:00,VALID,917.569,VALID,0,VALID,98.6256,VALID,0,VALID,18.7409,VALID,103,VALID,1.20022,
2005-10-24, 01:52:00,VALID,917.564,VALID,0,VALID,98.5087,VALID,0,VALID,18.7446,VALID,107,VALID,1.24746,
2005-10-24, 01:53:00,VALID,917.556,VALID,0,VALID,98.3764,VALID,0,VALID,18.7379,VALID,114,VALID,0.949826,
2005-10-24, 01:54:00,VALID,917.547,VALID,0,VALID,98.3294,VALID,0.0169808,VALID,18.7409,VALID,114,VALID,0.840701,
2005-10-24, 01:55:00,VALID,917.529,VALID,0,VALID,98.3027,VALID,0,VALID,18.7349,VALID,103,VALID,0.732143,
2005-10-24, 01:56:00,VALID,917.521,VALID,0,VALID,98.3561,VALID,0,VALID,18.7608,VALID,104,VALID,0.540661,
2005-10-24, 01:57:00,VALID,917.506,VALID,0,VALID,98.2963,VALID,0,VALID,18.7568,VALID,93,VALID,0.568638,
2005-10-24, 01:58:00,VALID,917.493,VALID,0,VALID,98.2124,VALID,0.0339617,VALID,18.77,VALID,131,VALID,0.874805,
2005-10-24, 01:59:00,VALID,917.47,VALID,0,VALID,97.8843,VALID,0,VALID,18.7538,VALID,130,VALID,1.0282,
2005-10-24, 02:00:00,VALID,917.453,VALID,0,VALID,97.7495,VALID,0.0169808,VALID,18.7705,VALID,124,VALID,0.907738,
2005-10-24, 02:01:00,VALID,917.431,VALID,0,VALID,97.7495,VALID,0,VALID,18.7901,VALID,133,VALID,1.1859,
2005-10-24, 02:02:00,VALID,917.415,VALID,0,VALID,97.6007,VALID,0,VALID,18.7968,VALID,130,VALID,1.14234,
2005-10-24, 02:03:00,VALID,917.405,VALID,0,VALID,97.5664,VALID,-0.0169808,VALID,18.7926,VALID,119,VALID,0.87862,
2005-10-24, 02:04:00,VALID,917.38,VALID,0,VALID,97.4545,VALID,0.0169808,VALID,18.8058,VALID,131,VALID,0.930043,
2005-10-24, 02:05:00,VALID,917.366,VALID,0,VALID,97.5194,VALID,0,VALID,18.809,VALID,131,VALID,1.27768,
2005-10-24, 02:06:00,VALID,917.345,VALID,0,VALID,97.7432,VALID,0,VALID,18.812,VALID,130,VALID,1.28834,
2005-10-24, 02:07:00,VALID,917.344,VALID,0,VALID,97.8207,VALID,0,VALID,18.809,VALID,129,VALID,1.2237,
2005-10-24, 02:08:00,VALID,917.318,VALID,0,VALID,97.9479,VALID,0,VALID,18.803,VALID,130,VALID,1.16267,
2005-10-24, 02:09:00,VALID,917.308,VALID,0,VALID,98.0013,VALID,-0.0169808,VALID,18.7928,VALID,129,VALID,1.21894,
2005-10-24, 02:10:00,VALID,917.305,VALID,0,VALID,98.1081,VALID,0,VALID,18.7926,VALID,130,VALID,1.32363,
2005-10-24, 02:11:00,VALID,917.29,VALID,0,VALID,98.173,VALID,0,VALID,18.803,VALID,131,VALID,1.08408,
2005-10-24, 02:12:00,VALID,917.29,VALID,0,VALID,98.2556,VALID,0,VALID,18.7861,VALID,129,VALID,1.11663,
2005-10-24, 02:13:00,VALID,917.273,VALID,0,VALID,98.3357,VALID,0,VALID,18.7931,VALID,136,VALID,1.123,
2005-10-24, 02:14:00,VALID,917.261,VALID,0,VALID,98.4731,VALID,0,VALID,18.7898,VALID,132,VALID,0.936928,
2005-10-24, 02:15:00,VALID,917.257,VALID,0,VALID,98.4921,VALID,0,VALID,18.7769,VALID,125,VALID,1.01126,
2005-10-24, 02:16:00,VALID,917.261,VALID,0,VALID,98.4832,VALID,0,VALID,18.7834,VALID,124,VALID,0.991343,
2005-10-24, 02:17:00,VALID,917.237,VALID,0,VALID,98.4934,VALID,0,VALID,18.7732,VALID,110,VALID,0.800327,
2005-10-24, 02:18:00,VALID,917.233,VALID,0,VALID,98.3879,VALID,0,VALID,18.77,VALID,119,VALID,0.880814,
2005-10-24, 02:19:00,VALID,917.211,VALID,0,VALID,98.2721,VALID,0,VALID,18.7804,VALID,123,VALID,0.810352,
2005-10-24, 02:20:00,VALID,917.185,VALID,0,VALID,98.1196,VALID,0,VALID,18.7834,VALID,117,VALID,0.674924,
2005-10-24, 02:21:00,VALID,917.164,VALID,0,VALID,97.9123,VALID,0,VALID,18.7864,VALID,130,VALID,0.922828,
2005-10-24, 02:22:00,VALID,917.137,VALID,0,VALID,97.663,VALID,0,VALID,18.7995,VALID,116,VALID,0.957812,
2005-10-24, 02:23:00,VALID,917.108,VALID,0,VALID,97.5817,VALID,0,VALID,18.8154,VALID,117,VALID,0.854388,
2005-10-24, 02:24:00,VALID,917.095,VALID,0,VALID,97.2917,VALID,0.0339617,VALID,18.8346,VALID,124,VALID,0.964258,
2005-10-24, 02:25:00,VALID,917.087,VALID,0,VALID,97.1099,VALID,0.0169808,VALID,18.8537,VALID,125,VALID,0.708147,
2005-10-24, 02:26:00,VALID,917.084,VALID,0,VALID,96.8085,VALID,0,VALID,18.877,VALID,120,VALID,1.21856,
2005-10-24, 02:27:00,VALID,917.082,VALID,0,VALID,96.5186,VALID,0.0169808,VALID,18.893,VALID,116,VALID,1.0434,
2005-10-24, 02:28:00,VALID,917.089,VALID,0,VALID,96.2325,VALID,0,VALID,18.919,VALID,125,VALID,0.919331,
2005-10-24, 02:29:00,VALID,917.076,VALID,0,VALID,96.0303,VALID,-0.0169808,VALID,18.9379,VALID,131,VALID,1.04315,
2005-10-24, 02:30:00,VALID,917.067,VALID,0,VALID,95.5331,VALID,0,VALID,18.9546,VALID,112,VALID,1.75382,
2005-10-24, 02:31:00,VALID,917.061,VALID,0,VALID,95.1745,VALID,0,VALID,19.0028,VALID,119,VALID,1.60975,
2005-10-24, 02:32:00,VALID,917.062,VALID,0,VALID,94.779,VALID,0,VALID,19.0547,VALID,94,VALID,1.54707,
2005-10-24, 02:33:00,VALID,917.064,VALID,0,VALID,94.7498,VALID,0.0169808,VALID,19.0967,VALID,105,VALID,1.25801,
2005-10-24, 02:34:00,VALID,917.073,VALID,0,VALID,94.8655,VALID,-0.0169808,VALID,19.1131,VALID,105,VALID,1.00199,
2005-10-24, 02:35:00,VALID,917.064,VALID,0,VALID,94.6621,VALID,0,VALID,19.1031,VALID,112,VALID,1.60707,
2005-10-24, 02:36:00,VALID,917.067,VALID,0,VALID,94.6748,VALID,0,VALID,19.1068,VALID,117,VALID,1.07083,
2005-10-24, 02:37:00,VALID,917.057,VALID,0,VALID,94.4052,VALID,0,VALID,19.1093,VALID,119,VALID,1.28181,
2005-10-24, 02:38:00,VALID,917.065,VALID,0,VALID,94.2997,VALID,0,VALID,19.1257,VALID,103,VALID,1.55897,
2005-10-24, 02:39:00,VALID,917.074,VALID,0,VALID,94.2882,VALID,0,VALID,19.1317,VALID,130,VALID,0.903587,
2005-10-24, 02:40:00,VALID,917.075,VALID,0,VALID,94.4332,VALID,0,VALID,19.1449,VALID,130,VALID,0.849479,
2005-10-24, 02:41:00,VALID,917.07,VALID,0,VALID,94.5349,VALID,0.0169808,VALID,19.1317,VALID,138,VALID,0.954901,
2005-10-24, 02:42:00,VALID,917.061,VALID,0,VALID,94.676,VALID,-0.0169808,VALID,19.1324,VALID,127,VALID,1.00236,
2005-10-24, 02:43:00,VALID,917.059,VALID,0,VALID,94.7066,VALID,0,VALID,19.0964,VALID,121,VALID,1.22947,
2005-10-24, 02:44:00,VALID,917.05,VALID,0,VALID,94.7269,VALID,0,VALID,19.083,VALID,143,VALID,0.851017,
2005-10-24, 02:45:00,VALID,917.054,VALID,0,VALID,94.3073,VALID,0,VALID,19.0994,VALID,109,VALID,1.74653,
2005-10-24, 02:46:00,VALID,917.048,VALID,0,VALID,94.2768,VALID,0,VALID,19.1317,VALID,109,VALID,1.79668,
2005-10-24, 02:47:00,VALID,917.063,VALID,0,VALID,94.3035,VALID,0,VALID,19.1543,VALID,113,VALID,1.48889,
2005-10-24, 02:48:00,VALID,917.058,VALID,0,VALID,94.3531,VALID,0,VALID,19.171,VALID,115,VALID,1.18332,
2005-10-24, 02:49:00,VALID,917.053,VALID,0,VALID,94.4243,VALID,0,VALID,19.1576,VALID,82,VALID,1.03338,
2005-10-24, 02:50:00,VALID,917.053,VALID,0,VALID,94.4751,VALID,-0.0169808,VALID,19.1714,VALID,115,VALID,1.35042,
2005-10-24, 02:51:00,VALID,917.039,VALID,0,VALID,94.5769,VALID,-0.0169808,VALID,19.1578,VALID,99,VALID,1.02858,
2005-10-24, 02:52:00,VALID,917.034,VALID,0,VALID,94.7841,VALID,-0.0509425,VALID,19.1747,VALID,109,VALID,0.857067,
2005-10-24, 02:53:00,VALID,917.031,VALID,0,VALID,94.8236,VALID,0,VALID,19.158,VALID,116,VALID,1.11541,
2005-10-24, 02:54:00,VALID,917,VALID,0,VALID,94.6176,VALID,-0.0169808,VALID,19.1349,VALID,114,VALID,1.42129,
2005-10-24, 02:55:00,VALID,916.988,VALID,0,VALID,94.807,VALID,0,VALID,19.1511,VALID,116,VALID,0.946243,
2005-10-24, 02:56:00,VALID,916.97,VALID,0,VALID,94.8083,VALID,0.0169808,VALID,19.1615,VALID,100,VALID,1.25563,
2005-10-24, 02:57:00,VALID,916.96,VALID,0,VALID,94.8223,VALID,0,VALID,19.1349,VALID,121,VALID,1.17827,
2005-10-24, 02:58:00,VALID,916.953,VALID,0,VALID,94.8986,VALID,-0.0339617,VALID,19.1454,VALID,128,VALID,1.11272,
2005-10-24, 02:59:00,VALID,916.947,VALID,0,VALID,94.8414,VALID,0,VALID,19.1451,VALID,133,VALID,1.65337,
2005-10-24, 03:00:00,VALID,916.938,VALID,0,VALID,94.8401,VALID,0.0169808,VALID,19.132,VALID,126,VALID,1.72745,
2005-10-24, 03:01:00,VALID,916.942,VALID,0,VALID,94.334,VALID,0,VALID,19.1511,VALID,142,VALID,1.99891,
2005-10-24, 03:02:00,VALID,916.949,VALID,0,VALID,94.2373,VALID,0,VALID,19.1931,VALID,124,VALID,1.82087,
2005-10-24, 03:03:00,VALID,916.951,VALID,0,VALID,94.161,VALID,-0.0679233,VALID,19.2338,VALID,129,VALID,1.99059,
2005-10-24, 03:04:00,VALID,916.959,VALID,0,VALID,94.1305,VALID,-0.101885,VALID,19.2333,VALID,129,VALID,1.79874,
2005-10-24, 03:05:00,VALID,916.942,VALID,0,VALID,94.1471,VALID,-0.101885,VALID,19.243,VALID,129,VALID,2.09299,
2005-10-24, 03:06:00,VALID,916.936,VALID,0,VALID,94.3213,VALID,-0.101885,VALID,19.2494,VALID,116,VALID,1.47129,
2005-10-24, 03:07:00,VALID,916.923,VALID,0,VALID,94.2399,VALID,-0.101885,VALID,19.2532,VALID,115,VALID,1.46742,
2005-10-24, 03:08:00,VALID,916.903,VALID,0,VALID,94.0886,VALID,-0.101885,VALID,19.2494,VALID,106,VALID,1.93679,
2005-10-24, 03:09:00,VALID,916.896,VALID,0,VALID,94.2284,VALID,-0.101885,VALID,19.2656,VALID,120,VALID,1.30273,
2005-10-24, 03:10:00,VALID,916.875,VALID,0,VALID,94.2704,VALID,-0.118866,VALID,19.2656,VALID,107,VALID,1.66349,
2005-10-24, 03:11:00,VALID,916.878,VALID,0,VALID,94.2691,VALID,-0.101885,VALID,19.2527,VALID,118,VALID,1.56938,
2005-10-24, 03:12:00,VALID,916.881,VALID,0,VALID,94.0504,VALID,-0.118866,VALID,19.2629,VALID,118,VALID,1.85955,
2005-10-24, 03:13:00,VALID,916.88,VALID,0,VALID,93.6282,VALID,-0.101885,VALID,19.2887,VALID,114,VALID,1.83416,
2005-10-24, 03:14:00,VALID,916.886,VALID,0,VALID,93.6054,VALID,-0.101885,VALID,19.3302,VALID,120,VALID,1.634,
2005-10-24, 03:15:00,VALID,916.888,VALID,0,VALID,93.5481,VALID,-0.101885,VALID,19.356,VALID,119,VALID,1.77683,
2005-10-24, 03:16:00,VALID,916.88,VALID,0,VALID,93.5659,VALID,-0.101885,VALID,19.3722,VALID,115,VALID,1.54137,
2005-10-24, 03:17:00,VALID,916.894,VALID,0,VALID,93.4451,VALID,-0.0849042,VALID,19.372,VALID,108,VALID,2.02121,
2005-10-24, 03:18:00,VALID,916.89,VALID,0,VALID,93.538,VALID,-0.0169808,VALID,19.3673,VALID,106,VALID,1.58256,
2005-10-24, 03:19:00,VALID,916.906,VALID,0,VALID,93.5609,VALID,0,VALID,19.364,VALID,102,VALID,1.55525,
2005-10-24, 03:20:00,VALID,916.902,VALID,0,VALID,93.674,VALID,0.0169808,VALID,19.3876,VALID,106,VALID,1.44442,
2005-10-24, 03:21:00,VALID,916.894,VALID,0,VALID,93.6766,VALID,0,VALID,19.3648,VALID,106,VALID,1.35365,
2005-10-24, 03:22:00,VALID,916.882,VALID,0,VALID,93.6232,VALID,0,VALID,19.3543,VALID,110,VALID,1.8125,
2005-10-24, 03:23:00,VALID,916.862,VALID,0,VALID,93.6003,VALID,-0.0169808,VALID,19.3606,VALID,112,VALID,1.31211,
2005-10-24, 03:24:00,VALID,916.861,VALID,0,VALID,93.6117,VALID,-0.0169808,VALID,19.3807,VALID,111,VALID,1.488,
2005-10-24, 03:25:00,VALID,916.834,VALID,0,VALID,93.5558,VALID,0,VALID,19.3841,VALID,108,VALID,1.60993,
2005-10-24, 03:26:00,VALID,916.829,VALID,0,VALID,93.6829,VALID,0,VALID,19.374,VALID,131,VALID,1.22816,
2005-10-24, 03:27:00,VALID,916.804,VALID,0,VALID,93.7834,VALID,0.0169808,VALID,19.3543,VALID,103,VALID,1.05599,
2005-10-24, 03:28:00,VALID,916.799,VALID,0,VALID,93.7452,VALID,0.0169808,VALID,19.3484,VALID,123,VALID,1.08105,
2005-10-24, 03:29:00,VALID,916.806,VALID,0,VALID,93.7796,VALID,0,VALID,19.3352,VALID,130,VALID,1.38095,
2005-10-24, 03:30:00,VALID,916.812,VALID,0,VALID,93.8838,VALID,0,VALID,19.3322,VALID,126,VALID,0.974355,
2005-10-24, 03:31:00,VALID,916.817,VALID,0,VALID,94.0135,VALID,-0.0169808,VALID,19.3094,VALID,116,VALID,0.839558,
2005-10-24, 03:32:00,VALID,916.821,VALID,0,VALID,94.1165,VALID,0,VALID,19.293,VALID,115,VALID,0.765811,
2005-10-24, 03:33:00,VALID,916.818,VALID,0,VALID,94.3136,VALID,0,VALID,19.2674,VALID,105,VALID,1.16719,
2005-10-24, 03:34:00,VALID,916.816,VALID,0,VALID,94.4548,VALID,-0.0169808,VALID,19.2448,VALID,115,VALID,1.16741,
2005-10-24, 03:35:00,VALID,916.794,VALID,0,VALID,94.6112,VALID,0.0169808,VALID,19.2155,VALID,106,VALID,1.35063,
2005-10-24, 03:36:00,VALID,916.784,VALID,0,VALID,94.7358,VALID,-0.0169808,VALID,19.1998,VALID,102,VALID,1.28688,
2005-10-24, 03:37:00,VALID,916.773,VALID,0,VALID,94.7002,VALID,0,VALID,19.1869,VALID,109,VALID,1.25955,
2005-10-24, 03:38:00,VALID,916.76,VALID,0,VALID,94.5603,VALID,0,VALID,19.1702,VALID,105,VALID,0.850586,